Location: Egeln Nord
(51.9602°N, 11.4348°E)
Time: 13:58:37
(UTC+00:00)

Daily predictions for brighter satellites

Satellite Brightness Start Highest point End
(mag) Time Altitude Azimuth Time Altitude Azimuth Time Altitude Azimuth
MOS 1-B 4.4 15:38:22 10° SSE 15:44:06 66° ENE 15:49:52 10° NNW
Cosmos 44 4.2 15:40:30 10° NW 15:45:12 34° NNE 15:50:03 10° E
H-2A R/B 3.9 15:45:08 10° NE 15:46:01 10° NE 15:46:53 10° NE
Cosmos 1814 Rocket 4.2 15:41:22 10° S 15:46:33 56° ESE 15:51:46 10° NNE
Cosmos 1980 Rocket 4.2 15:44:01 10° WNW 15:47:40 17° NNW 15:51:20 10° NNE
EP 1 4.3 15:45:45 10° SW 15:48:37 86° NW 15:51:13 10° NE
Cosmos 1842 Rocket 3.7 15:45:36 10° S 15:49:49 53° E 15:54:03 10° NNE
CZ-4B R/B 3.4 15:45:32 10° SE 15:50:37 48° ENE 15:55:42 10° N
SL-16 R/B 3.6 15:45:55 10° WSW 15:50:58 32° NW 15:56:02 10° NNE
Cosmos 2237 Rocket 3.1 15:47:52 10° SSE 15:52:37 29° ESE 15:57:23 10° NE
ADEOS Rocket 3.7 15:45:31 10° NNE 15:53:06 63° E 16:00:49 10° S
Nadezhda 1 Rocket 4.4 15:47:14 10° SSE 15:53:09 43° E 15:59:08 10° NNE
Cosmos 1805 Rocket 4.2 15:49:19 10° N 15:53:26 35° ENE 15:57:30 10° SE
GENESIS II 4.2 15:50:32 10° NW 15:54:32 70° NE 15:58:26 10° SE
Okean O Rocket 2.1 15:50:42 10° SE 15:54:44 39° ENE 15:58:50 10° N
Cosmos 1570 Rocket 4.0 15:53:34 10° SSW 15:58:53 78° ESE 16:04:10 10° NNE
Cosmos 2084 Rocket 4.0 15:57:03 10° WSW 16:01:05 50° NW 16:05:14 10° NE
Cosmos 2369 Rocket 3.5 15:57:06 10° NNW 16:01:21 21° NNE 16:05:35 10° E
CZ-4C R/B 3.4 15:58:39 10° NNE 16:02:11 47° E 16:05:42 10° S
CZ-4B R/B 4.5 15:58:23 10° S 16:02:19 42° W 16:06:28 10° NNW
CORIOLIS 4.3 15:58:12 10° SE 16:03:24 50° ENE 16:08:39 10° N
Cosmos 2322 3.9 15:58:02 10° SW 16:03:42 75° WNW 16:09:26 10° NNE
Cosmos 2154 Rocket 4.0 15:58:54 10° N 16:05:13 66° ENE 16:11:32 10° SSE
CZ-4 R/B 3.2 16:03:55 10° E 16:05:39 13° NE 16:07:24 10° NNE
NOSS 0 Rocket 4.3 16:00:19 10° S 16:06:14 47° ESE 16:12:10 10° NE
Landsat 5 3.8 16:03:21 10° NNE 16:07:38 54° E 16:12:01 10° S
Cosmos 1763 Rocket 4.3 16:03:06 10° SW 16:08:01 47° WNW 16:12:56 10° NNE
USA 215 4.4 16:03:43 10° ENE 16:09:02 26° SE 16:14:20 10° S
Cosmos 1980 4.2 16:05:35 10° S 16:10:52 41° ESE 16:16:10 10° NE
Cosmos 1869 3.7 16:07:21 10° SSW 16:11:24 70° WNW 16:15:32 10° N
YAOGAN 6 2.5 16:08:31 10° SSE 16:12:10 79° ENE 16:15:48 10° N
Cosmos 405 2.9 16:10:31 10° SSW 16:14:00 90° WNW 16:17:31 10° NNE
Cosmos 389 Rocket 3.8 16:12:49 10° SE 16:15:24 20° E 16:17:22 13° NE
Cosmos 2341 Rocket 4.3 16:09:30 10° N 16:15:31 46° ENE 16:21:33 10° SE
Cosmos 1939 Rocket 3.8 16:12:33 10° ESE 16:15:43 24° ENE 16:18:56 10° N
Cosmos 1607 4.4 16:11:27 10° WSW 16:17:45 62° NW 16:24:11 10° NE
H-2A R/B 3.7 16:14:35 10° S 16:18:20 52° W 16:22:09 10° NNW
H-2A R/B 2.1 16:15:35 10° NNE 16:19:40 54° ESE 16:23:48 10° S
Cosmos 2150 Rocket 4.4 16:18:42 10° NNW 16:23:51 67° WSW 16:28:57 10° SSE
NOAA 6 4.4 16:18:45 10° S 16:23:53 69° WSW 16:29:03 10° NNW
ISS -2.5 16:22:51 10° SW 16:25:52 31° SSE 16:27:59 16° E
Cosmos 1943 Rocket 2.8 16:21:54 10° NNW 16:26:56 34° NE 16:31:58 10° ESE
Cosmos 405 Rocket 3.2 16:23:15 10° NNW 16:27:07 65° W 16:31:02 10° S
Cosmos 1818 4.2 16:22:12 10° NW 16:27:36 60° SW 16:32:57 10° SSE
Cosmos 2285 Rocket 4.3 16:23:17 10° NNW 16:29:28 46° NE 16:35:34 10° SE
Cosmos 2297 3.9 16:23:59 10° NNW 16:29:32 51° NE 16:35:04 10° SE
Cosmos 1633 Rocket 3.7 16:25:39 10° N 16:29:39 33° ENE 16:33:36 10° SE
CZ-2C R/B 3.8 16:28:09 10° ESE 16:32:16 26° ENE 16:36:16 10° N
CRYOSAT 2 4.3 16:28:37 10° N 16:33:30 65° E 16:38:21 10° S
CZ-4B R/B 2.2 16:34:26 22° ENE 16:35:24 26° E 16:38:04 10° SSE
Cosmos 1125 Rocket 3.7 16:30:32 10° NNW 16:35:45 75° WSW 16:40:57 10° SSE
Cosmos 1356 3.4 16:32:26 10° N 16:35:49 53° ENE 16:39:10 10° SSE
SL-8 Rocket 4.2 16:30:13 10° N 16:36:15 49° ENE 16:42:17 10° SSE
Meteor 2-2 Rocket 4.5 16:30:43 10° SSW 16:36:40 79° WNW 16:42:34 10° N
Meteor 2-12 Rocket 4.4 16:31:39 10° N 16:37:50 70° ENE 16:43:56 10° SSE
Cosmos 2322 Rocket 4.1 16:34:08 10° W 16:38:32 22° NW 16:42:56 10° NNE
ARGOS 4.4 16:38:13 18° ENE 16:39:36 20° NE 16:43:23 10° N
CREW DRAGON DEMO-1 DEB 3.5 16:38:13 10° W 16:41:08 50° SSW 16:43:19 16° SE
SL-16 R/B 3.2 16:36:38 10° SSE 16:41:15 26° ESE 16:43:43 19° ENE
Cosmos 2292 4.4 16:38:29 10° S 16:41:39 82° E 16:45:37 10° NNE
Cosmos 2221 3.3 16:37:46 10° SSW 16:42:01 53° WNW 16:46:16 10° N
SMAP 3.3 16:37:48 10° S 16:42:28 74° WSW 16:47:08 10° NNW
USA 267 3.2 16:38:02 10° ESE 16:44:34 81° NNE 16:51:08 10° WNW
Cosmos 540 Rocket 4.5 16:40:43 10° SW 16:45:36 44° WNW 16:50:32 10° NNE
Cosmos 2181 Rocket 4.3 16:43:04 10° SSE 16:49:04 44° E 16:55:04 10° NNE
Cosmos 1933 3.9 16:46:25 10° SSE 16:50:04 34° E 16:51:57 22° NE
Cosmos 1606 2.8 16:46:48 10° S 16:50:37 57° E 16:54:11 12° NNE
Cosmos 2333 Rocket 3.2 16:53:17 10° WSW 16:58:40 42° NW 17:04:04 10° NNE
IRS-1C Rocket 4.0 16:55:53 10° SSE 17:01:06 64° ENE 17:06:20 10° N
CZ-4 R/B 4.5 16:59:37 10° SSE 17:03:39 53° ENE 17:07:43 10° N
YAOGAN 1 3.1 17:01:43 22° ESE 17:03:48 36° ENE 17:07:46 10° N
Meteor 1-20 Rocket 4.2 16:58:17 10° N 17:04:09 72° ENE 17:09:59 10° SSE
COSMOS 2428 3.6 16:58:50 10° SW 17:04:22 47° NW 17:09:49 10° NNE
Cosmos 2278 Rocket 4.0 17:00:04 10° NW 17:05:08 34° WSW 17:10:11 10° S
Cosmos 1470 Rocket 3.8 17:01:57 10° N 17:06:06 42° ENE 17:10:12 10° SE
ERS-2 2.0 17:08:37 31° NNE 17:10:14 64° ESE 17:13:52 10° S
COSMO-SKYMED 1 2.7 17:10:27 28° NE 17:12:28 49° E 17:16:41 10° S
USA 281 3.1 17:06:44 10° SE 17:13:15 73° ENE 17:19:50 10° NNW
USA 81 3.9 17:08:04 10° N 17:13:23 75° E 17:18:39 10° SSE
Helios 1A Rocket 3.0 17:11:26 19° SE 17:14:08 49° ENE 17:18:02 10° N
MOS 1 Rocket 4.3 17:14:02 32° E 17:14:28 32° E 17:19:19 10° SSE
Feng Yun 1-1 Rocket 4.3 17:08:46 10° SSE 17:14:34 85° WSW 17:20:15 10° NNW
Sich 1 3.9 17:13:36 10° NNW 17:17:54 51° W 17:22:08 10° S
Cosmos 2360 Rocket 4.2 17:14:40 10° W 17:18:48 20° NNW 17:22:58 10° NNE
Cosmos 773 Rocket 4.4 17:16:21 10° S 17:21:11 39° ESE 17:21:43 37° E
Okean-O 2.6 17:17:07 10° SSE 17:21:28 60° ENE 17:25:51 10° N
Cosmos 1602 3.7 17:19:40 10° N 17:23:35 60° ENE 17:24:18 49° ESE
CSL-04 Debris 4.4 17:20:25 22° SE 17:23:36 46° ENE 17:28:49 10° N
Lacrosse 5 rocket 2.9 17:21:12 10° S 17:22:55 19° SSE 17:22:55 19° SSE
Cosmos 2218 Rocket 3.9 17:18:01 10° N 17:24:13 85° E 17:30:22 10° S
H-2A R/B 2.3 17:21:16 23° SE 17:24:17 46° ENE 17:29:15 10° N
Meteor 1-25 Rocket 4.2 17:19:51 10° NNW 17:25:29 85° WSW 17:31:09 10° S
Cosmos 2219 Rocket 3.6 17:20:41 10° WSW 17:25:44 32° NW 17:30:27 12° NNE
CZ-2D R/B 3.1 17:22:03 10° SSE 17:25:51 87° E 17:29:43 10° NNW
Cosmos 44 3.6 17:21:40 10° NW 17:26:55 75° SW 17:31:48 13° SSE
EO 1 Delta rocket 4.3 17:23:29 10° NNE 17:28:36 62° E 17:34:57 10° S
Cosmos 783 Rocket 4.5 17:24:45 10° S 17:29:58 60° ESE 17:31:44 39° NE
Okean O Rocket 3.7 17:27:25 10° SSW 17:31:12 28° W 17:35:01 10° NW
Cosmos 1656 Rocket 4.2 17:28:27 10° NNW 17:33:45 38° NE 17:33:52 38° NE
Cosmos 2366 rocket 3.9 17:27:34 10° N 17:33:50 87° W 17:40:00 10° S
Cosmos 1980 Rocket 4.4 17:33:00 10° NNW 17:34:13 11° N 17:35:26 10° NNE
Cosmos 1151 Rocket 2.8 17:31:18 10° S 17:35:35 80° E 17:36:52 45° NNE
Cosmos 2237 Rocket 2.6 17:30:47 10° SW 17:36:20 60° NW 17:40:11 21° NNE
SKYMED 3 4.4 17:34:47 35° NNE 17:36:35 83° ESE 17:40:57 10° SSW
Cosmos 1933 Rocket 3.8 17:32:20 10° N 17:36:04 51° NE 17:36:04 51° NE
SL-16 R/B 4.5 17:34:19 10° NW 17:36:59 13° NNW 17:39:41 10° N
Cosmos 1666 Rocket 4.4 17:33:30 10° NNW 17:37:46 50° W 17:42:02 10° S
SJ-11-01 4.3 17:39:22 57° ENE 17:39:22 57° ENE 17:43:56 10° N
CZ-4 R/B 1.2 17:38:52 46° SSE 17:40:01 87° ENE 17:44:04 10° NNW
Cosmos 1328 Rocket 3.4 17:40:22 10° S 17:44:40 86° E 17:45:21 63° NNE
CSL-04 Rocket 3.5 17:44:43 47° ESE 17:46:04 62° ENE 17:51:19 10° N
Cosmos 2369 Rocket 2.1 17:40:45 10° NNW 17:46:29 68° NE 17:47:50 51° ESE
Cosmos 389 Rocket 4.1 17:46:48 10° SW 17:49:55 32° WNW 17:51:15 23° NNW
Cosmos 1939 Rocket 4.2 17:46:53 10° SSW 17:50:30 37° W 17:54:10 10° NNW
USA 215 3.2 17:50:49 46° ENE 17:52:50 71° SSE 17:59:23 10° SW
H-2A R/B 4.4 17:52:13 10° N 17:55:21 21° WNW 17:58:31 10° WSW
Cosmos 489 Rocket 4.4 17:51:34 10° S 17:57:34 56° ESE 17:57:38 56° ESE
Cosmos 2239 Rocket 4.4 17:54:27 10° N 18:00:34 60° ENE 18:00:38 60° E
SKYMED 2 4.0 17:59:06 37° N 18:00:37 59° WNW 18:04:53 10° SSW
ISS -1.9 17:59:03 10° WSW 18:00:57 31° WSW 18:00:57 31° WSW
Cosmos 1867 3.6 18:01:29 10° SW 18:06:57 79° NW 18:07:37 68° NNE
CZ-4B R/B 3.7 18:07:35 21° WNW 18:07:35 21° WNW 18:09:57 10° WSW
Cosmos 1943 Rocket 2.7 18:05:33 10° NW 18:11:00 58° WSW 18:14:16 24° S
CZ-2C R/B 3.6 18:06:55 10° S 18:11:55 55° W 18:16:43 10° NNW
ARGOS 3.2 18:19:45 74° NNW 18:19:45 74° NNW 18:24:40 10° NNW
Nadezhda 3 Rocket 4.5 18:18:33 10° S 18:33:04 - NNE 18:22:56 47° S
SL-16 R/B 2.4 18:19:19 10° SW 18:24:56 66° NW 18:25:38 60° NNW
NOSS 3-3 (A) 4.3 18:20:32 10° NW 18:27:47 73° NE 18:28:26 69° ENE
NOSS 3-3 (C) 4.3 18:20:38 10° NW 18:27:52 72° NE 18:28:30 69° ENE
USA 267 4.0 18:25:00 29° S 18:27:56 46° SW 18:34:11 10° WNW
Cosmos 1821 Rocket 4.1 18:29:40 10° NNW 18:35:51 71° W 18:38:26 37° S
Cosmos 2263 4.5 18:31:11 10° NNW 18:35:57 62° WNW 18:35:57 62° WNW
YAOGAN 1 4.3 18:38:54 27° WSW 18:39:57 31° W 18:43:49 10° NNW
Cosmos 2333 Rocket 4.4 18:41:12 10° WNW 18:44:32 16° NNW 18:46:14 14° N
MOS 1 Rocket 4.5 18:53:21 47° W 18:53:21 47° W 18:58:04 10° SW
H-2A R/B 3.7 19:01:53 25° SW 19:03:53 32° W 19:08:32 10° NNW
Cosmos 2237 Rocket 4.3 19:17:41 10° WNW 19:21:37 19° NNW 19:22:01 19° NNW
Cosmos 2369 Rocket 4.1 19:25:28 10° NW 19:29:40 25° W 19:29:40 25° W
USA 215 4.2 19:38:10 41° WNW 19:38:10 41° WNW 19:42:21 10° W
